Location: Berua Church
(35.0423°N, 88.5987°W)
Time: 20:40:35
(UTC+00:00)

Okean 1 - Pass Details

Date: 08 December 2019
Orbit: 539 x 555 km, 82.5° (Epoch: 18 January)

Event Time Altitude Azimuth Distance (km) Brightness Sun altitude
Rises 23:38:42 0° 157° (SSE) 2,703 6.8 -11.4°
Reaches altitude 10° 23:41:11 10° 142° (SE) 1,812 5.8 -11.8°
Maximum altitude 23:44:20 23° 90° (E) 1,191 4.5 -12.4°
Enters shadow 23:45:38 19° 61° (ENE) 1,318 4.6 -12.7°
